Regional Weather Roundup
Issued by NWS Sioux Falls, SD

Home | Current Version | Previous Version | Text Only | Print | Product List | Glossary Off
Versions: 1 2 3 4 5 6 7 8 9 10 11 12 13 14 15 16 17 18 19 20 21 22 23 24 25 26 27 28 29 30 31 32 33 34 35 36 37 38 39 40 41 42 43 44 45 46 47 48 49 50

990
ASUS43 KFSD 101210
RWRFSD

WEATHER ROUNDUP FOR SE SOUTH DAKOTA/SW MINNESOTA/NW IOWA
NATIONAL WEATHER SERVICE SIOUX FALLS SD
600 AM CST WED FEB 10 2016

NOTE: "FAIR" INDICATES FEW OR NO CLOUDS BELOW 12,000 FEET WITH NO
SIGNIFICANT WEATHER AND OR OBSTRUCTIONS TO VISIBILITY.


SDZ038>040-050-052>070-101300-
SOUTHEAST SOUTH DAKOTA

CITY           SKY/WX    TMP DP  RH WIND       PRES   REMARKS
BROOKINGS      LGT SNOW  12   8  84 SE12      29.98F FOG     WCI  -2
CHAMBERLAIN    CLOUDY    23  20  91 E5        29.90R WCI  16
6HR MIN TEMP:  22; 6HR MAX TEMP:  29;

HURON          CLOUDY    22  19  89 SE13      29.96S WCI  10
6HR MIN TEMP:  22; 6HR MAX TEMP:  27; 6HR PCP: TRACE;

MADISON        LGT SNOW  16  16 100 E10       29.98S WCI   3
MITCHELL       CLOUDY    24  17  74 SE14      29.96F WCI  12
6HR MIN TEMP:  24; 6HR MAX TEMP:  27;

SIOUX FALLS    LGT SNOW  19  15  84 E12       30.00F FOG     WCI   7
6HR MIN TEMP:  19; 6HR MAX TEMP:  21; 6HR PCP:  0.03;

WINNER         FAIR      30  25  81 SW5       29.86F WCI  25
YANKTON        CLOUDY    21  18  86 E10       29.97F WCI  10
$$

MNZ071-072-080-081-089-090-097-098-101300-
SOUTHWEST MINNESOTA

CITY           SKY/WX    TMP DP  RH WIND       PRES   REMARKS
FAIRMONT       CLOUDY     7   0  72 CALM      30.08S
JACKSON        LGT SNOW  10   3  72 E6        30.06S WCI   1
LUVERNE        LGT SNOW  18  12  79 E9        30.02F WCI   6
MARSHALL       LGT SNOW  10   6  84 E9        30.07F FOG     WCI  -3
6HR MIN TEMP:  10; 6HR MAX TEMP:  14; 6HR PCP: TRACE;

MONTEVIDEO     LGT SNOW   7   3  85 SE8       30.11F WCI  -6
PIPESTONE      LGT SNOW  16   7  67 SE9       30.00F WCI   4
REDWOOD FALLS  LGT SNOW   7   0  73 E3        30.11S
TRACY          LGT SNOW  11   8  85 E7        30.06F WCI   0
WINDOM         LGT SNOW   9   3  78 CALM      30.06F
WORTHINGTON    CLOUDY    12   7  79 E7        30.04F WCI   2
$$

IAZ001>003-012>014-020>022-031-032-NEZ013-014-SDZ071-101300-
NORTHWEST IOWA

CITY           SKY/WX    TMP DP  RH WIND       PRES   REMARKS
CHEROKEE       LGT SNOW  19  17  90 SE5       30.06F WCI  12
DENISON        CLOUDY    21  16  79 SE5       30.05S WCI  15
ESTHERVILLE    LGT SNOW   9   3  77 NE5       30.07F VSB 1   WCI   1
LE MARS        CLOUDY    21  19  93 SE9G15    30.03F WCI  11
ORANGE CITY    LGT SNOW  19  18  93 CALM      30.02F
SHELDON        LGT SNOW  16  14  93 E10       30.02F WCI   3
SIOUX CITY     CLOUDY    22  16  78 SE12      30.02F WCI  10
6HR MIN TEMP:  16; 6HR MAX TEMP:  22; 6HR PCP: TRACE;

SPENCER        LGT SNOW  15   9  76 E9        30.06F WCI   3
6HR MIN TEMP:  15; 6HR MAX TEMP:  19; 6HR PCP: TRACE;

STORM LAKE     LGT SNOW  18  16  93 CALM      30.07R
$$

ABBREVIATIONS USED IN REMARKS
   TC - TEMPERATURE IN CELSIUS
  WCI - WIND CHILL INDEX
   HX - HEAT INDEX
  VSB - VISIBILITY





USA.gov is the U.S. government's official web portal to all federal, state and local government web resources and services.